sat.trackr.live / text

‹ back to catalog

STARLINK-3811

NORAD 52383 · 2022-045BE

PAYLOAD ACTIVE UNKNOWN

§ Identity

Operator
Country
US
Launch date
2022-04-29
Launch site
AFETR
Launch vehicle
Mass (kg)
RCS (m²)

Purposes: comms

External: N2YO · Heavens-Above · Gunter

§ Orbital elements

Epoch: 2026-09-19T21:43:28.001280Z

Period
93.90 min
Inclination
53.1598°
Eccentricity
0.0001088
Mean motion
15.33554033 rev/d
Perigee alt
464.5 km
Apogee alt
466.0 km
Semi-major
6,843.4 km
B*
-4.6528e-5
RAAN
12.6211°
Arg perigee
89.7748°
Mean anomaly
270.3379°
Rev number
24,558

§ Raw data

STARLINK-38111 52383U 22045BE  26262.90518520 -.00001903  00000+0 -46528-4 0  99952 52383  53.1598  12.6211 0001088  89.7748 270.3379 15.33554033245584

JSON: /api/v1/satellites/52383 · /tle

For live sub-satellite position, see the globe view (requires WebGL).

§ Visibility from observer

Set your observer location to see the next 7 days of passes ≥ 10°. The values pass through the URL so the page stays shareable.

No JS? Fill the form by hand. The geolocation button needs JavaScript.